GFSNW_prec_radar_036.txt.gz
Reflectivity
-19 10 -20 -20 -20 -20 -20 -20 -20 -20 -20 -20 -20 -20 -20 -20 -15 -20 -20 -20 -20 -20 -20 -20 -20 -20 -20 -20 -20 -20 -20 -20 -20 -19 -20 -20 -20 -20 -20 -20 -20 -20 -20 -20
-20 -20 -20 -20 -20 -20 -17 -20 -20 -20 -20 -20 -20 -20 -20 -20 -20 -20 -20 -20 -20 -20 -20 -20 -20 -20 -20 -20 -20 -20 -20 -20 -6 -16 -16 -20 -20 -20 -20 -20 -20 -20 -20 -20
-20 -20 -20 -20 -20 -20 -18 -20 -20 -20 -20 -20 -20 -20 -20 -20 -20 -20 -20 -20 -20 -20 -20 -20 -20 -20 -20 -20 -20 -20 -20 -20 -20 -20 -20 -20 -20 -20 -20 -20 -20 -20 -20 -20
-18 -20 -20 -20 -20 -20 -20 -20 -20 -20 -20 -20 -20 -20 -20 -20 -20 -20 -20 -20 -20 -20 -20 -20 -20 -20 -20 -20 -20 -20 -20 -20 -20 -20 -20 -20 -20 -20 -20 -20 -20 -20 -20 -20
-1 -20 -20 -20 -20 -20 -20 -11 -20 -20 -20 -20 -20 -20 -20 -20 -20 -20 -20 -20 -20 -20 -20 -20 -20 -20 -20 -20 -20 -20 -20 -20 -20 -20 -20 -20 -20 -20 -20 -20 -20 -20 -20 -20
8 -20 -20 -20 -20 -20 -20 -20 -19 -13 -20 -20 -20 -20 -20 -20 -20 -20 -20 -20 -20 -20 -20 -20 -20 -20 -20 -20 -20 -20 -20 -20 -20 -20 -20 -20 -20 -20 -20 -20 -20 -20 -20 -20
11 -7 3 -19 -20 -20 -20 -20 -20 -11 -20 -20 -20 -20 -20 -20 -20 -20 -20 -20 -20 -20 -20 -20 -20 -20 -20 -20 -20 -20 -20 -15 -20 -20 -20 -20 -20 -20 -20 -20 -20 -20 -20 -20
-20 -20 15 4 8 -20 -17 -17 -19 -20 -20 -20 -20 -20 -20 -20 -20 -20 -20 -20 -20 -20 -20 -20 -20 -9 -18 -20 -20 -20 -20 -20 -4 -20 -20 -20 -20 -20 -20 -20 -20 -20 -20 -20
6 -20 6 17 13 -20 -16 -9 -10 4 -20 -20 -20 -20 -20 -20 -20 -20 -20 -20 -20 -20 -20 4 1 -1 -20 -19 2 -20 -20 -12 6 -18 -19 -20 -20 -20 -20 -20 -18 -20 -20 -20
-8 10 -19 -20 23 24 -20 -19 -14 0 -11 -20 -20 -20 -20 -20 -18 -20 -20 -20 -20 -20 11 3 -19 -1 -20 -20 -20 3 8 10 9 8 -15 -20 -20 -20 -20 -9 -19 -20 -20 -20
7 12 -18 6 10 12 -10 -18 -20 -17 -17 -20 -20 -20 -20 -18 -15 -6 -20 1 -20 -20 9 -1 -8 -17 -20 -20 -20 -20 -18 -7 6 9 4 -20 -20 -20 -20 -20 -20 -20 19 -13
-19 -18 1 -14 -7 18 15 -20 -20 -20 -20 -20 -18 -5 -17 -20 -20 -20 -20 -19 -20 -17 12 -17 -17 -20 -20 -20 -20 -20 -20 -20 -20 -20 -20 -20 -20 -20 -20 -20 -17 -13 9 14
18 14 12 -13 1 17 26 30 -2 -9 1 3 15 -14 -8 -20 -11 7 -12 -0 12 3 -14 -20 -20 4 -20 -20 -20 -20 -20 -20 -20 -20 -20 -20 -20 -20 -20 -20 -20 -20 -20 -20
13 1 -20 -20 -4 -2 20 8 -15 9 4 13 6 4 -14 -20 -20 -20 -20 -20 -20 9 32 -0 -20 -20 -20 -20 -20 -20 -20 -20 -20 -20 -20 -20 -20 -20 -20 -20 -20 -20 -20 -20
11 6 -15 7 25 -1 9 -15 -3 15 13 -9 -19 -20 -20 -20 -20 -20 -20 -20 -20 -20 -10 31 29 -20 -20 -20 -20 -20 -20 -20 -20 -20 -20 -20 -20 -20 -20 -20 -20 -20 -20 -20
13 3 10 18 12 -20 3 -5 2 -10 -20 7 -10 -20 -20 -20 -20 -20 -20 -20 -20 -2 -20 5 35 8 -19 9 -20 -20 -20 -20 -20 -20 -20 -20 -20 -20 -20 -20 -20 -20 -20 -20
14 7 4 -3 -11 -20 -3 -19 -20 -20 -12 11 -20 -20 -20 -20 -20 -20 -20 7 16 7 7 -13 29 34 -3 -19 -20 -20 -20 -20 -20 -20 -20 -20 -20 -20 -20 -20 -20 -20 -20 -20
-15 8 -20 -20 -10 -20 -19 -20 -14 -20 11 1 -19 -20 -20 -20 -20 -14 -20 -7 -12 -7 10 -10 19 37 24 -13 -20 -20 -20 -20 -20 -20 -20 -20 -20 -20 -20 -20 -20 -20 -20 -20
-20 -20 -20 -20 -20 -20 -20 -4 5 15 15 -20 3 -20 -15 18 1 17 -17 -20 -20 -3 13 19 25 23 26 4 -18 -20 -20 -20 -20 -20 -20 -20 -20 -20 -20 -20 -20 -20 -20 -20
-20 -20 -20 1 -20 -16 -20 14 25 27 16 -6 -8 7 9 28 10 10 32 -7 14 19 7 11 30 33 13 -7 -20 -20 -20 -20 -20 -20 -20 -20 -20 -20 -20 -20 -20 -20 -20 -20
-20 -20 -20 -20 -20 -15 3 1 -8 -0 -10 -4 -1 0 12 29 33 13 27 29 29 28 30 31 15 10 -12 -20 -20 -20 -20 -20 -20 -20 -20 -20 -20 -20 -9 -20 -20 -20 -20 -20
-16 8 -20 -19 -19 1 -6 -20 -15 -8 2 19 19 15 22 29 28 31 13 25 -11 -13 8 -2 -19 -19 -20 -20 -20 -20 -20 -20 -20 -20 -20 -16 -20 -17 -12 -14 -12 -20 -20 -20
-20 -14 -2 -20 -20 -8 11 7 -3 -18 -18 -4 -16 -15 22 22 31 29 21 -7 -18 -18 3 -18 -20 -20 -20 -20 -20 -20 -20 -20 -20 -20 -14 -20 -17 11 21 22 18 10 1 -11
-20 -20 -20 -20 -18 -19 -7 -15 -4 -20 -20 -20 -20 -17 19 25 23 25 -7 12 15 8 -5 -20 -20 -20 -20 -20 -20 -20 -20 -20 -20 -20 -20 -20 -4 12 14 19 20 3 -20 -5
-20 -20 -20 -20 -20 -20 -20 -20 -17 -17 -19 -1 -20 -20 20 24 18 20 8 -2 -11 -15 -20 -20 -20 -20 -20 -20 -20 -20 -20 -20 -20 -20 -20 -20 -20 6 -12 -4 -11 -19 -20 -20
-20 -20 -20 -20 -20 -20 -20 -20 -20 -20 -20 -20 -9 -17 -12 18 24 6 -20 -20 -20 -20 -20 -20 -20 -20 -20 -20 -20 -20 -20 -20 -20 -7 -13 -20 -20 -12 0 1 3 -10 -20 -20
-20 -20 -20 -20 -20 -20 -20 -20 -20 -20 -20 -7 -20 -7 -20 -1 1 -20 -20 -20 -20 -20 -20 -20 -20 -20 -20 -20 -20 -20 -20 -20 3 5 -3 -20 -20 -10 -20 -20 -20 -20 -20 -20

GFSNW_prec_radar_039.txt.gz
Reflectivity
-20 -20 -20 -20 -20 -20 -20 -20 -9 -20 -20 -1 -20 -20 -20 -20 -20 -20 -20 -20 -20 -20 -20 -20 -20 -20 -20 -20 -20 -20 -20 -20 -20 2 -20 -19 -7 -11 -2 -20 -20 -20 -20 -20
2 -20 -20 -20 -20 -20 1 -20 -20 -20 -20 -3 -20 -20 -20 -20 -20 -20 -20 -20 -20 -20 -20 -20 -20 -20 -20 -20 -20 -20 -20 -20 -20 -17 -20 -20 -20 -20 -20 -20 -20 -20 -20 -20
-1 -20 -20 -20 -20 -20 -20 -20 -17 -20 -20 -20 -20 -20 -20 -20 -20 -20 -20 -20 -20 -20 -20 -20 -20 -20 -20 -20 -20 -20 -20 -20 -20 -20 -20 -20 -20 -20 -20 -20 -20 -20 -20 -20
-2 -8 -20 -20 -20 -20 -20 -20 -20 -20 1 -20 -20 -20 -20 -20 -20 -20 -20 -20 -20 -20 -20 -20 -20 -20 -20 -20 -20 -20 -20 -20 -20 -20 -20 -20 -20 -20 -20 -20 -20 -20 -20 -20
10 -20 -20 -20 -20 -20 -20 -18 -12 -20 -20 -20 -20 -20 -20 -20 -20 -20 -20 -20 -20 -20 -20 -20 -20 -20 -20 -20 -20 -20 -20 -20 -20 -20 -20 -20 -20 -20 -20 -20 -20 -20 -20 -20
-8 -20 -19 -20 -20 -20 -20 -20 -7 1 -20 -20 -20 -20 -20 -20 -20 -20 -20 -20 -20 -20 -20 -20 -20 -20 -20 -20 -20 -20 -20 -20 -20 -20 -20 -20 -20 -20 -20 -20 -20 -20 -20 -20
-10 1 4 -4 -4 -20 -20 -20 -11 -13 -20 -20 -15 -20 -20 -20 -20 -20 -20 -20 -20 -20 -20 -20 -20 -20 -20 -20 -20 -20 -20 -20 -20 -0 -20 -20 -20 -20 -20 -20 -20 -20 -20 -20
8 -17 -10 -18 -20 -20 -20 -20 -20 0 -20 -20 -20 -20 -20 -20 -20 -20 -20 -20 -20 -20 -20 -14 -14 3 -1 -11 -20 -20 -20 -14 -20 -5 -20 -20 -20 -20 -20 -20 -20 -20 -20 -20
-1 -20 -20 -12 11 -20 -20 -20 -20 -17 7 -16 -20 -20 -20 -20 -11 -15 -20 -20 -20 -20 10 8 -17 -0 -3 -19 5 -19 -20 -19 -20 -19 -20 -20 -20 -20 -20 -20 -18 -20 -20 -20
-20 -20 -20 4 8 -20 -20 -20 -20 -20 -14 0 -20 -20 -20 -20 0 -20 -20 -15 -7 -20 12 4 -20 -9 -20 -4 -18 -20 6 5 2 -4 -20 -20 -20 -20 -20 -11 -19 -20 -20 -20
-20 -20 -20 -20 -5 12 -17 1 -20 -20 -20 -20 -20 -20 -18 -20 -20 -5 -20 1 -16 -4 18 9 -14 -20 -20 -20 -20 -20 -16 -10 1 -12 -17 -20 -20 -20 -16 -16 -20 -20 -20 -20
8 4 14 12 12 0 12 6 11 4 6 -11 -20 -20 -20 -4 -7 -15 -13 -19 -20 -14 -6 13 8 -19 -6 -20 -17 -20 -20 -20 -20 -20 -20 -20 -20 -20 -20 -20 -20 -20 -20 -20
-20 3 -20 -20 -20 -8 9 17 -11 9 11 5 -10 -15 -20 -20 -18 -0 -6 8 7 -1 3 -13 -12 13 -15 -2 -20 -20 -20 -20 -20 -20 -20 -20 -20 -20 -20 -20 -20 -20 -20 -20
-17 2 -0 -4 -14 -6 16 -0 -15 14 2 9 -20 -10 4 8 3 -3 -13 -14 -19 -20 17 17 10 14 -17 -9 -20 -20 -20 -20 -20 -20 -20 -20 -20 -20 -20 -20 -20 -20 -20 -20
-14 6 -18 6 7 9 -20 3 11 15 8 6 -7 -18 -9 -19 -20 -18 -4 -4 -20 -20 -20 2 21 17 7 -16 -20 -20 -20 -20 -20 -20 -20 -20 -20 -20 -20 -20 -20 -20 -20 -20
-4 5 -9 16 7 -14 4 1 -20 -17 6 8 -4 -20 -20 -5 -15 -20 -20 -20 -20 -17 0 -20 -20 14 24 16 -20 -20 -20 -20 -20 -20 -20 -20 -20 -20 -20 -20 -20 -20 -20 -20
-20 16 17 5 -20 11 -1 -7 -14 -20 -20 2 1 -20 -20 -20 -20 -20 -20 -17 -2 8 10 -9 -9 -1 37 32 -12 -20 -16 -20 -20 -20 -20 -20 -20 -20 -20 -20 -20 -20 -20 -20
9 5 -20 -20 12 -6 7 -18 -15 -20 15 6 -3 -18 -20 -20 -20 -20 -20 -12 -3 17 12 7 -20 -16 20 33 -20 -20 -0 -20 -20 -20 -20 -20 -20 -20 -20 -20 -20 -20 -20 -20
-20 -20 -20 8 -7 3 -1 -19 -8 8 21 9 5 -9 -10 -9 8 -12 -19 -17 0 -6 10 -15 9 11 22 23 8 -7 -20 -20 -20 -20 -20 -20 -20 -20 -20 -20 -20 -20 -20 -20
-20 -20 -20 5 -20 -4 -20 5 13 20 18 19 -9 10 -1 23 22 4 -2 11 15 14 -7 9 26 12 10 28 20 -20 -20 -20 -20 -20 -20 -20 -20 -20 -20 -20 -20 -20 -20 -20
-20 3 -20 -20 -20 -18 6 6 2 6 -2 2 -7 -15 -18 18 10 20 8 25 21 26 9 13 4 3 -19 0 -20 -20 -20 -20 -20 -20 -20 -20 -20 -20 -20 -15 1 -20 -20 -20
1 -10 -20 -19 -15 -5 7 11 15 1 15 4 6 -5 2 8 27 33 28 28 28 22 21 34 17 10 -7 -19 -20 -20 -20 -20 -20 -20 -20 -20 -20 -20 -20 -20 -20 -20 -16 -20
-20 -9 -17 -20 -20 -10 -5 1 10 10 -4 -20 -11 -20 3 -2 30 30 29 14 6 -13 6 -17 -9 -20 -20 -20 -20 -20 -20 -20 -20 -20 -20 -20 -20 -20 -19 2 14 23 20 12
-20 -20 -20 -20 -20 -20 -20 -20 -20 -20 -20 -6 2 0 2 7 25 28 7 6 3 12 4 -7 -20 -20 -20 -20 -20 -20 -20 -20 -20 -20 -20 -20 -20 -20 -20 -20 -20 -20 -20 -11
-20 -20 -20 -20 -20 -20 -20 -20 -20 -20 -20 0 -4 1 -0 1 15 24 18 0 2 -1 11 -17 -20 -20 -20 -20 -20 -20 -20 -20 -20 -20 -20 -20 -20 -20 -20 -20 -20 -14 -0 -5
-20 -20 -20 -20 -20 -20 -20 -20 -20 -20 -20 -20 -2 -15 -19 -8 18 16 5 7 -20 4 -1 -10 -8 -20 -20 -20 -20 -20 -20 -20 -20 -20 -20 -20 -20 -20 -15 -19 7 -10 -20 -20
-20 -20 -20 -20 -20 -20 -20 -20 -20 -20 -20 -20 -12 -3 -8 -18 -1 -1 -9 13 -3 19 1 -14 -19 -16 -20 -20 -20 -20 -14 -8 -20 -20 9 -18 -20 -6 5 -19 -20 -20 -20 -20

GFSNW_prec_radar_042.txt.gz
Reflectivity
-17 -10 -20 -20 -20 -20 -20 -20 -20 -20 -20 -5 -1 -20 -20 -20 -20 -20 -20 -20 -20 -20 -20 -20 -20 -20 -20 -20 -20 -20 -20 -20 -2 5 -16 10 11 -0 -20 -20 -20 -20 -20 -20
-20 -2 -20 -20 -20 -20 -18 -20 -20 -20 -20 9 -20 -20 -20 -20 -20 -20 -20 -20 -20 -20 -20 -20 -20 -20 -20 -20 -20 -20 -20 -20 -20 -20 -20 -20 7 -1 -17 21 -7 -20 -11 -20
-18 -17 -20 -20 -20 -20 -20 -20 -20 -9 -20 -20 -19 -17 -20 -20 -20 -20 -20 -20 -20 -20 -20 -20 -20 -20 -20 -20 -20 -20 -20 -20 -20 -20 -20 -20 -20 -20 -20 -14 -13 -19 -18 -20
2 -20 -20 -20 -20 -20 -20 -20 -20 -20 -20 -20 -20 -20 -20 -20 -5 -20 -20 -20 -20 -20 -20 -20 -20 -20 -20 -20 -20 -20 -20 -20 -20 -20 -20 -20 -20 -20 -20 -20 -20 -18 -15 -20
1 -20 -20 -20 -20 -20 -20 -20 -20 -20 -20 -20 -20 -20 1 -4 2 -20 -8 -20 -20 -20 -18 -20 -20 -20 -20 -20 -20 -20 -20 -20 -20 -20 -20 -20 -20 -20 -20 -20 -20 -20 -20 -20
-11 -7 3 -6 -20 -20 -20 -20 -20 -10 -20 -20 -18 -20 -20 -20 -20 -15 -20 -20 -20 -20 -6 -20 -20 -20 -20 -20 -20 -20 -20 -20 -20 -20 -20 -20 -20 -20 -20 -20 -20 -20 -20 -20
-8 -3 -20 -13 -20 -20 -20 -20 -20 -20 -9 -20 -20 -20 -20 -20 -20 -20 -20 -20 -15 -20 -20 -20 -20 -20 -20 -20 -20 -20 -20 -20 -20 -20 -20 -20 -20 -20 -20 -20 -20 -20 -20 -20
2 1 -16 4 -20 -20 -20 -20 -20 -20 -19 -2 -20 -20 -20 -20 -20 -20 -20 1 -20 -20 -20 -20 -20 -20 -20 -18 -20 -20 -20 -20 -20 -20 -20 -20 -20 -20 -20 -20 -20 -20 -20 -20
-20 -16 -6 -20 -20 -20 -20 -20 -20 -20 -20 -20 -10 -20 -20 -20 -20 -20 11 -18 -20 -20 2 9 5 1 -7 -13 -2 -20 -20 -13 -16 -17 -20 -20 -20 -20 -20 -20 -20 -20 -20 -20
-20 -20 -20 -20 -20 -20 -18 8 -20 -20 -20 -20 -20 -20 -20 -20 -20 -20 -20 -20 -20 -20 -7 13 -2 -6 -20 -20 -20 -20 -6 -15 -13 5 -17 -20 -20 -20 -20 -14 -20 -20 -20 -20
12 4 4 18 -15 13 -20 11 -10 -14 -20 -20 -20 -20 -20 -20 -20 -20 -20 -20 -20 -7 12 12 -20 -20 -20 -20 -20 -20 -20 -20 -4 -1 3 -18 -20 -20 -11 -20 -20 -20 -20 -20
-20 -20 -19 -20 -20 -20 9 1 13 -12 12 -20 -20 -20 -20 -20 -20 -20 -7 -20 -20 -4 -7 -5 3 -18 -20 -20 -20 -20 -20 -20 -20 -20 -20 -20 -20 -20 -20 -20 -20 -20 -20 -20
2 -11 -17 -20 -20 -16 2 19 6 -17 15 -20 -20 -20 -20 -20 -20 -16 -18 -17 -1 6 7 23 1 -8 -15 -20 -20 -17 -20 -20 -20 -20 -20 -20 -20 -20 -20 -20 -20 -20 -20 -20
7 3 -20 15 12 1 13 -3 -1 13 12 -8 -20 -2 7 8 16 16 18 14 3 -14 -20 -18 -9 20 -7 -11 -20 -18 -20 -20 -20 -20 -20 -20 -20 -20 -20 -20 -20 -20 -20 -20
-20 -20 -20 11 10 -20 -20 -20 -11 7 21 10 -16 -20 -20 -17 -13 -4 -13 -20 -20 -20 -20 -20 -13 -13 -13 -14 -20 -20 -20 -20 -20 -20 -20 -20 -20 -20 -20 -20 -20 -20 -20 -20
-20 -20 16 -19 -3 -20 -20 8 -20 -20 -19 8 2 -20 -20 -20 -20 -20 -20 -15 -20 -20 -6 -12 -20 -20 -17 10 17 -20 -20 0 -20 -20 -20 -20 -20 -20 -20 -20 -20 -20 -20 -20
-20 -6 -19 -20 -20 -20 -20 -19 -20 7 -20 5 -5 -20 -20 -14 -15 -20 -20 -17 -5 2 7 -5 -20 -20 -16 25 -13 -20 -20 -16 -8 -20 -20 -20 -20 -20 -20 -20 -20 -20 -20 -20
-20 -20 -20 -20 -20 -20 -5 -20 -20 -20 1 -20 -4 -20 -20 -20 -20 -20 -20 -14 -12 4 -8 -19 -20 -20 -9 2 -20 17 17 17 -16 -20 -20 -20 -20 -20 -20 -20 -20 -20 -20 -20
-20 -20 -20 -13 -20 1 -7 -20 -9 -20 15 -1 1 -9 -7 4 3 3 -20 -19 -15 -20 8 -17 -7 -20 14 -19 12 27 32 -17 -20 -20 -20 -20 -20 -20 -20 -20 -20 -20 -20 -20
-20 -20 -20 -20 -20 -20 -20 3 9 12 20 7 -20 2 -20 2 12 17 -17 -20 8 -17 -20 -1 1 -17 -7 8 8 22 21 0 -20 -20 -20 -20 -20 -20 -20 -20 -20 -20 -20 -20
-20 -20 -20 -20 -20 -20 -4 -7 -9 14 -4 -2 -16 -17 -12 -13 1 5 -6 -11 -14 -9 17 -4 19 15 -5 8 27 11 17 5 -20 -20 -20 -20 -20 -20 -20 -20 -20 -9 -20 -20
-20 -20 -20 -20 -15 -17 -20 -20 -0 4 7 11 16 -13 -20 -0 22 22 17 3 20 8 13 19 12 32 27 4 7 18 22 25 9 -20 -20 -20 -20 -20 -20 -20 -20 -20 -19 -17
-20 -20 -20 -20 -20 -20 -20 -20 -20 -20 -20 -20 -19 -1 -9 -11 29 20 25 14 -5 22 15 -19 -0 -20 -20 -14 -3 -18 -14 -8 -20 -20 -20 -20 -20 -20 -20 -20 -20 -20 -20 -8
-20 -20 -20 -20 -20 -20 -20 -20 -20 -20 -20 -20 -20 5 0 3 8 25 7 17 11 -17 -1 14 -20 -20 -20 -20 -20 -20 -20 -20 -20 -20 -20 -20 -20 -20 -20 -20 -20 -20 -20 -20
-20 -20 -20 -20 -20 -20 -20 -20 -20 -20 -20 -11 -9 1 -3 -18 -9 20 21 -6 -20 -20 7 24 21 -20 -20 -20 -20 -20 -20 -20 -20 -20 -20 -20 -20 -20 -20 -20 -20 -20 -20 -20
-20 -20 -20 -20 -20 -20 -20 -20 -20 -20 -20 -20 -13 -20 -20 -9 8 -8 11 13 17 22 26 20 18 27 8 -20 -20 -20 -20 -20 -0 -5 -20 -20 -20 -20 -20 -20 -20 -20 -20 -20
-20 -20 -20 -20 -20 -20 -20 -20 -20 -20 -20 -20 -20 -20 -20 -18 1 16 25 26 20 14 7 25 -20 -20 -18 -20 -20 -20 -20 -20 -5 -17 1 17 8 -20 -20 -20 -20 -20 -20 -20

GFSNW_prec_radar_045.txt.gz
Reflectivity
3 -20 -20 -19 -12 -20 -20 -20 -18 -20 -20 -20 -17 -20 -20 -20 -20 -20 -20 -20 -20 -20 -20 -20 -20 -20 -20 -20 -20 -15 -20 -20 -9 -20 -19 -14 19 15 26 -16 -20 -20 -20 -20
1 -20 -20 -20 -20 -20 -20 -20 -20 -20 -20 -20 -20 -20 -20 -20 -20 -20 -20 -20 -20 -20 -20 -20 -20 -20 -20 -20 -20 -20 -20 -20 -20 -9 -20 -7 10 -20 -20 -20 -20 -20 -20 -20
-18 -12 -19 -20 -20 -20 -20 -20 -20 -20 -20 -20 -20 -20 -20 -20 -20 -20 -20 -20 -20 -20 -20 -20 -20 -20 -20 -20 -20 -20 -20 -20 -20 -20 -20 -20 -20 -20 -11 -16 -20 -13 -20 -20
-4 -17 -20 -20 -20 -20 -20 -20 -20 -20 -20 -20 -20 -20 -20 -20 -20 -20 -20 -20 -20 -20 -20 -20 -20 -20 -20 -20 -20 -20 -20 -20 -20 -20 -20 -20 -20 -20 -20 -10 -7 8 8 6
-4 -20 -20 -20 -20 -20 -20 -20 -20 -20 -19 -20 -20 -20 -20 -20 -8 -20 -20 -20 -20 -20 -20 -20 -20 -20 -20 -20 -20 -20 -20 -20 -20 -20 -20 -20 -20 -20 -20 -20 -20 -20 -20 -20
-13 -20 -20 -20 -20 -20 -20 -20 -20 -20 -20 -16 -20 -15 -20 -20 -20 -18 -20 -20 -20 -20 -20 -20 -20 -20 -20 -20 -20 -20 -20 -20 -20 -20 -20 -20 -20 -20 -20 -20 -20 -20 -20 -20
-10 -20 -20 -20 -20 -20 -20 -20 -20 -20 -20 -20 -20 -20 -20 -20 -20 -20 -20 -20 -13 -20 -20 -20 -20 -20 -20 -20 -20 -20 -20 -20 -20 -20 -20 -20 -20 -20 -20 -20 -20 -20 -20 -20
-20 -20 -20 -20 -20 -20 -20 -20 -20 -20 -20 -20 -20 -14 -20 -20 -20 -20 -0 -20 -20 -20 -20 -20 -20 -20 -20 -20 -20 -20 -20 -20 -20 -20 -20 -20 -20 -20 -20 -20 -20 -20 -20 -20
-20 -20 -20 -20 -20 -20 -20 -20 -20 -20 -20 -20 -20 -20 -20 -20 -20 -20 -20 -20 -20 -20 -20 -19 4 -2 -10 -20 -19 -20 -20 -20 -20 -19 -20 -20 -20 -20 -20 -20 -20 -20 -20 -20
-20 -20 -20 -1 -20 -9 -20 -20 -20 -20 -20 -20 -20 -20 -20 -20 -20 -20 -20 -15 -20 -20 -20 -13 -16 -20 -20 -20 -20 -20 -9 -20 -8 -19 -13 -20 -20 -20 -20 -20 -20 -20 -20 -20
-20 -20 -20 -20 -20 -20 -20 -20 -19 -19 -20 -20 -20 -20 -20 -20 -20 -20 -20 -20 -20 -20 -1 -20 -20 -20 -20 -20 -20 -20 -20 -20 -20 -8 -1 -20 -20 -20 -20 -20 -20 -20 -20 -20
-14 -20 -20 -20 -20 -20 -4 -6 -2 -6 -20 -20 -20 -20 -20 -20 -20 -20 -20 -20 -20 12 -20 10 -20 -20 -20 -20 -20 -20 -20 -20 -20 -20 -20 -20 -20 -20 -20 -20 -20 -20 -20 -20
-20 -20 -4 -20 -20 10 4 -9 -20 -20 -2 -20 -20 -20 -20 -20 -20 -20 -20 -20 -20 1 3 -8 -12 -12 -20 -20 -20 -20 -20 -20 -20 -20 -20 -20 -20 -20 -20 -20 -20 -20 -20 -20
-17 -20 -20 -7 -20 -20 -8 -20 -20 0 -2 -9 3 -10 -20 -20 -19 -11 -5 -3 8 5 -14 -20 -20 -20 5 -5 -20 -20 -20 -20 -20 -20 -20 -20 -20 -20 -20 -20 -20 -20 -20 -20
-20 -20 -20 14 -11 -20 -20 -20 -20 -14 -20 -2 9 -17 -18 -2 -3 -19 -12 -2 -6 -14 -20 -20 -20 -20 -20 -20 -20 -20 -20 -20 -20 -20 -20 -20 -20 -20 -20 -20 -20 -20 -20 -20
-20 -20 12 -20 -20 -20 -20 -20 -20 -20 -20 -20 -19 -20 -20 -20 -20 -20 -20 -20 -20 -20 -19 -12 -16 -20 -20 -20 -20 -20 -20 -20 -20 -18 -20 -20 -20 -20 -20 -20 -20 -20 -20 -20
-20 -9 -20 -20 -20 -20 -20 -20 -20 -20 -20 -20 -20 -20 -20 -20 -20 -20 -20 -20 -20 -20 -20 -20 -20 -20 5 0 -19 -20 -19 -20 -20 6 -7 -20 -20 -20 -20 -20 -20 -20 -20 -20
-12 -20 -20 -20 -20 -20 -20 -20 -20 -20 -14 -20 -20 -20 -20 -20 -20 -20 -20 -20 -20 -10 -20 -20 -20 -20 -20 -20 -20 -20 -6 -7 -17 -19 10 -20 -20 -20 -20 -20 -20 -20 -20 -20
-20 -20 -20 -20 -20 -20 -18 -20 -19 -20 -15 -18 -20 -20 -20 -20 -20 -1 -20 -20 -15 -20 -20 -20 -13 -20 -20 -20 -20 -20 11 37 5 11 16 -19 -20 -20 -20 -20 -20 -20 -20 -20
-20 -20 -20 -20 -20 -20 -20 1 4 -20 -20 -20 -20 -9 -20 -15 -4 12 -19 -20 -20 -20 -20 -20 -14 -2 1 -10 -1 7 20 27 36 33 -20 -18 -1 -20 -20 -20 -20 -20 -20 -20
-20 -20 -20 -20 -20 -20 -20 -20 -20 -20 -20 -20 -20 -20 1 -20 -4 -9 -5 -14 -17 -20 -16 -20 -20 27 28 -13 -20 10 31 34 27 -20 -20 -20 -20 -20 -20 -20 -20 -19 1 -11
-20 -20 -20 -20 -20 -20 -20 -20 -14 -20 -20 -20 -12 -20 -20 -19 1 16 -5 -11 1 -20 16 -6 7 24 32 34 1 -20 -18 16 21 -20 -6 -20 -20 -20 -20 -20 -20 -19 -8 -20
-20 -20 -20 -20 -20 -20 -20 -20 -20 -20 -20 -20 -20 -20 -11 -20 -2 12 19 5 -18 25 12 3 16 13 10 24 33 33 29 7 35 35 8 -17 -20 -20 -20 -20 -20 -20 -20 -20
-20 -20 -20 -20 -20 -20 -20 -20 -20 -20 -20 -20 -20 -20 -18 -17 -5 21 10 -3 16 -12 16 21 12 14 -17 13 25 21 16 29 30 31 23 4 -20 -20 -20 -20 -20 -20 -20 -20
-20 -20 -20 -20 -20 -20 -20 -20 -20 -20 -20 -20 -20 -20 -20 -20 -20 5 11 9 8 22 15 19 24 16 21 -5 -20 -11 -6 -20 13 19 19 20 -13 -20 -20 -20 -20 -20 -20 -20
-20 -20 -20 -20 -20 -20 -20 -20 -20 -20 -20 -20 -20 -19 -14 -20 -20 -12 19 28 23 17 21 29 8 -19 -5 15 6 -20 -20 -20 -20 -20 5 -6 -20 -20 -20 -20 -20 -20 -20 -20
-20 -20 -20 -20 -20 -20 -20 -20 -20 -20 -20 -20 -20 -20 -20 -20 -20 -20 -5 2 -2 6 -7 -16 -4 3 -17 -18 -20 -20 -20 -8 2 1 1 -17 16 3 -20 -20 -20 -20 -20 -20

GFSNW_prec_radar_048.txt.gz
Reflectivity
-20 -20 -20 -20 -20 -20 -20 -20 -20 -20 -20 3 -20 -20 -20 -20 -20 -20 -20 -20 -20 -20 -20 -20 -20 -20 -20 -20 -20 -20 -20 -20 -2 -8 -6 -19 -6 -20 -20 -2 -1 -20 -20 -20
-20 -20 -20 -20 -20 -20 -20 -20 -20 -20 -20 10 -20 -20 -20 -20 -20 -20 -20 -20 -20 -20 -20 -20 -20 -20 -20 -20 -20 -20 -20 -20 -20 -20 -20 -20 13 22 -20 -20 -20 -20 -20 -20
-20 -20 -20 -20 -20 -20 -20 -20 -20 -20 -20 -20 -20 -20 -20 -20 -20 -20 -20 -20 -20 -20 -20 -20 -20 -20 -20 -20 -20 -20 -20 -20 -20 -20 -20 -20 -20 -10 -20 -20 -16 -20 -20 -20
-20 -20 -20 -20 -20 -20 -20 -20 -20 -20 -20 -8 6 -20 -14 -20 -20 -20 -20 -20 -20 -20 -20 -20 -20 -20 -20 -20 -20 -20 -20 -20 -20 -20 -20 -20 -20 -20 -20 -20 8 -11 8 -20
-20 -20 -20 -20 -20 -20 -20 -20 -20 -20 -20 -20 -1 -0 -20 -13 4 -20 -20 -20 -20 -20 -20 -20 -20 -20 -20 -20 -20 -20 -20 -20 -20 -20 -20 -20 -20 -20 -20 -20 -20 -20 -20 -20
-20 -20 -20 -20 -20 -20 -20 -20 -20 -20 -20 -20 -19 -19 -18 -20 -20 -18 -20 -20 -20 -20 -20 -20 -20 -20 -20 -20 -20 -20 -20 -20 -20 -20 -20 -20 -20 -20 -20 -20 -20 -20 -20 -20
-20 -20 -20 -20 -20 -20 -20 -20 -20 -20 -20 -20 -20 -19 -20 -19 -11 -16 -20 -20 -12 -20 -20 -20 -20 -20 -20 -20 -20 -20 -20 -20 -20 -20 -20 -20 -20 -20 -20 -20 -20 -20 -20 -20
-20 -20 -20 -20 -20 -20 -20 -20 -20 -20 -20 -20 -20 -20 -20 -20 -18 -15 -20 -16 -20 -20 -20 -20 -20 -20 -20 -20 -20 -20 -20 -20 -20 -20 -20 -20 -20 -20 -20 -20 -20 -20 -20 -20
-20 -20 -20 9 -20 -20 -20 -20 -20 -20 -20 -20 -20 -20 -20 -20 -20 3 -20 -20 -20 -20 -20 -20 -20 -20 -20 -20 -20 -20 -20 -20 -20 -20 -20 -20 -20 -20 -20 -20 -20 -20 -20 -20
-20 -20 -20 -20 -20 -20 -20 -20 -20 -20 -20 -20 -20 -20 -20 -20 -20 -20 -14 -18 -20 -20 -20 -20 -15 -20 -20 -20 -20 -20 -20 -20 4 -19 -12 -20 -20 -20 -20 -20 -20 -20 -20 -20
-20 -20 -20 -20 -20 -20 -20 -20 -20 -20 -20 -20 -20 -20 -20 -20 -20 -20 -12 -15 -16 -20 -20 -9 -20 -20 -20 -20 -20 -20 -20 -20 -20 -8 -4 -20 -20 -20 -20 -20 -20 -20 -20 -20
-20 -20 -20 6 14 16 -20 -7 7 -20 -18 -20 -20 -20 -20 -20 -20 -20 -20 -6 -20 -3 -16 0 -20 -20 -20 -20 -20 -20 -20 -20 -20 -20 -20 -20 -20 -20 -20 -20 -20 -20 -20 -20
-20 -20 -20 -17 -17 8 -19 -14 -20 -18 -19 -20 -20 -20 -20 -20 -20 -20 -20 -20 -20 -20 -20 -20 -7 -3 -12 -20 -20 -20 -20 -20 -20 -20 -20 -20 -20 -20 -20 -20 -20 -20 -20 -20
-20 -20 -20 -19 17 -8 -20 -20 -20 -2 -18 -20 -20 -20 -20 0 -11 -20 -20 -20 -18 -16 -20 -20 -20 -20 -20 -15 -20 -20 -20 -20 -20 -20 -20 -20 -20 -20 -20 -20 -20 -20 -20 -20
-20 -20 -20 -12 -20 -11 -20 -20 -20 -15 -20 -18 -20 -20 -20 -3 8 -2 -16 -4 -12 -0 -16 -18 -20 -20 -20 -20 -20 -20 -11 -19 -14 -20 -13 -14 -20 -20 -20 -20 -20 -20 -20 -20
-20 -20 -20 -20 -20 -20 -20 -20 -20 -20 -20 -20 -20 -20 -20 -20 -18 -4 -20 -20 -20 -20 -20 -20 -20 -20 -20 -20 -20 -20 -20 -20 -20 -20 -18 -20 -20 -20 -20 -20 -20 -20 -20 -20
-20 -20 -20 -20 -20 -20 -20 -20 -20 -20 -20 -20 -20 -20 -20 -20 -20 -20 -20 -20 -20 -20 -20 -20 -20 -20 -20 -18 -20 -20 -20 -20 -20 -20 -20 -20 -20 -20 -20 -20 -20 -20 -20 -20
-20 -20 -20 -20 -20 -20 -20 -20 1 -7 -20 -20 -20 -20 -20 -20 -20 -20 -20 -20 -20 -20 -20 -20 -20 -20 -20 -20 -20 -20 -20 -20 -20 -10 8 -20 2 -5 -20 -20 -20 -20 -20 -20
-20 -20 -20 -20 -20 -20 -20 4 4 -14 -20 -20 -20 -20 -20 -20 -20 -2 -16 -20 -20 -20 -20 -20 -20 -20 -20 -20 -20 -20 -20 -20 -20 21 25 -0 12 21 -1 -20 -20 -20 -20 -20
-20 -20 -20 -20 -20 -20 -20 -8 -20 -20 -20 -20 -20 -20 -20 -1 -10 4 -18 -20 -20 -20 -20 -20 -17 -20 -13 11 -17 -20 16 32 30 36 29 29 23 18 -20 -20 -20 -20 -20 -20
-20 -20 -20 -20 -20 -20 -20 -20 -20 -20 -20 -20 -20 -20 -20 -20 -4 -12 8 -19 -20 -20 -20 -20 -20 8 24 26 -10 -20 10 20 13 36 35 19 12 -20 -20 -19 -20 -20 -20 -20
-20 -20 -20 -20 -20 -20 -20 -20 -20 -20 -20 -20 -16 -20 -20 -17 -19 12 -8 -10 -11 -20 -17 -18 7 11 -16 21 23 -11 -14 -10 10 18 21 13 -20 -20 -20 -11 -20 -20 -20 -20
-20 -20 -20 -20 -20 -20 -20 -20 -20 -20 -20 -20 -20 -20 -20 -2 -11 5 3 -15 -12 21 4 24 -8 13 -15 -10 31 27 25 18 19 24 30 29 -3 -7 -1 -20 -20 -20 -20 -20
-20 -20 -20 -20 -20 -20 -20 -20 -20 -20 -20 -20 -20 -20 -20 -20 -20 -7 -9 -14 23 24 16 6 -8 16 -5 5 17 29 31 27 22 37 40 27 -17 -20 -20 -20 -20 -20 -20 -20
-20 -20 -20 -20 -20 -20 -20 -20 -20 -20 -20 -20 -20 -20 -20 -20 -20 -20 -14 19 26 14 5 -16 -17 -20 -0 -11 3 9 16 30 31 32 25 25 17 -15 -20 -20 -20 -20 -20 -20
-20 -20 -20 -20 -20 -20 -20 -20 -20 -20 -20 -20 -20 -20 -20 -20 -20 -20 -20 -13 -4 -4 13 -2 -20 -20 -20 -19 4 -20 -20 -9 18 21 24 22 17 14 6 -20 -20 -20 -20 -20
-20 -20 -20 -20 -20 -20 -20 -20 -20 -20 -20 -20 -20 -20 -20 -20 -20 -20 -20 -20 -20 -20 -20 -8 -20 -20 -20 -20 -20 -20 -20 -20 -5 11 14 15 23 20 -4 -20 -20 -20 -20 -20